When you browse on this site, cookies collect data to enhance your experience and personalize the content and advertising you see.
Visit our Privacy Policy to learn more. By continuing to use the site, you agree to this use of cookies and data.
  • In Schweiz
  • Länderverzeichnis
  • Für 7 Tage
  • Wassertemperatur
  • Satellitenkarten
  • Wetterkarte
  • Widgets
  • user-avatar
    Anmelden

    Stündliche Wetter Sankt Pölten

    Heute, 25 Mai, Samstag

    Zeit Temperatur Niederschläge Wind Luftdruck Luftfeuchtigkeit
    00:00 +12°C° 0 mm 1 m/S 734 mmHg 86%
    01:00 +12°C° 0 mm 1 m/S 734 mmHg 87%
    02:00 +12°C° 0 mm 1 m/S 734 mmHg 87%
    03:00 +11°C° 0 mm 1 m/S 734 mmHg 88%
    04:00 +11°C° 0 mm 1 m/S 734 mmHg 88%
    05:00 +13°C° 0 mm 1 m/S 734 mmHg 82%
    06:00 +15°C° 0 mm 1 m/S 734 mmHg 75%
    07:00 +18°C° 0 mm 1 m/S 734 mmHg 69%
    08:00 +20°C° 0 mm 1 m/S 734 mmHg 64%
    09:00 +22°C° 0 mm 1 m/S 734 mmHg 59%
    10:00 +24°C° 0 mm 1 m/S 734 mmHg 54%
    11:00 +25°C° 0.1 mm 1 m/S 734 mmHg 51%
    12:00 +25°C° 0.1 mm 1 m/S 734 mmHg 49%
    13:00 +26°C° 0.1 mm 1 m/S 734 mmHg 46%
    14:00 +26°C° 0.1 mm 1 m/S 734 mmHg 47%
    15:00 +26°C° 0.1 mm 1 m/S 733 mmHg 48%
    16:00 +25°C° 0.1 mm 1 m/S 733 mmHg 49%
    17:00 +21°C° 0.1 mm 0 m/S 733 mmHg 58%
    18:00 +20°C° 0.1 mm 0 m/S 733 mmHg 66%
    19:00 +18°C° 0.1 mm 0 m/S 733 mmHg 75%
    20:00 +19°C° 0.1 mm 1 m/S 733 mmHg 79%
    21:00 +16°C° 0.1 mm 1 m/S 734 mmHg 83%
    22:00 +15°C° 0.1 mm 1 m/S 734 mmHg 88%
    23:00 +15°C° 0.1 mm 1 m/S 734 mmHg 90%

    Morgen, 26 Mai, Sonntag

    Zeit Temperatur Niederschläge Wind Luftdruck Luftfeuchtigkeit
    00:00 +14°C° 0.1 mm 1 m/S 734 mmHg 92%
    01:00 +14°C° 0.1 mm 1 m/S 734 mmHg 93%
    02:00 +13°C° 0 mm 1 m/S 734 mmHg 94%
    03:00 +13°C° 0 mm 1 m/S 734 mmHg 95%
    04:00 +13°C° 0 mm 2 m/S 734 mmHg 95%
    05:00 +14°C° 0 mm 2 m/S 734 mmHg 92%
    06:00 +15°C° 0 mm 2 m/S 734 mmHg 88%
    07:00 +17°C° 0 mm 2 m/S 734 mmHg 85%
    08:00 +18°C° 0 mm 2 m/S 735 mmHg 78%
    09:00 +19°C° 0 mm 3 m/S 735 mmHg 71%
    10:00 +21°C° 0 mm 3 m/S 735 mmHg 64%
    11:00 +22°C° 0 mm 3 m/S 735 mmHg 61%
    12:00 +22°C° 0 mm 3 m/S 734 mmHg 58%
    13:00 +24°C° 0 mm 3 m/S 734 mmHg 56%
    14:00 +24°C° 0.1 mm 2 m/S 734 mmHg 55%
    15:00 +25°C° 0.1 mm 2 m/S 733 mmHg 55%
    16:00 +25°C° 0.1 mm 1 m/S 733 mmHg 55%
    17:00 +23°C° 0.1 mm 1 m/S 733 mmHg 63%
    18:00 +22°C° 0.1 mm 1 m/S 733 mmHg 71%
    19:00 +18°C° 0.1 mm 0 m/S 733 mmHg 79%
    20:00 +17°C° 0 mm 0 m/S 733 mmHg 82%
    21:00 +18°C° 0 mm 1 m/S 734 mmHg 85%
    22:00 +15°C° 0 mm 1 m/S 734 mmHg 88%
    23:00 +15°C° 0 mm 1 m/S 734 mmHg 89%

    übermorgen, 27 Mai, Montag

    Zeit Temperatur Niederschläge Wind Luftdruck Luftfeuchtigkeit
    00:00 +15°C° 0 mm 1 m/S 733 mmHg 90%
    01:00 +15°C° 0 mm 1 m/S 733 mmHg 90%
    02:00 +14°C° 0 mm 1 m/S 733 mmHg 91%
    03:00 +14°C° 0 mm 1 m/S 733 mmHg 91%
    04:00 +14°C° 0 mm 1 m/S 733 mmHg 92%
    05:00 +15°C° 0 mm 1 m/S 733 mmHg 88%
    06:00 +18°C° 0 mm 1 m/S 733 mmHg 85%
    07:00 +19°C° 0 mm 1 m/S 733 mmHg 81%
    08:00 +20°C° 0.1 mm 1 m/S 733 mmHg 79%
    09:00 +20°C° 0.1 mm 1 m/S 733 mmHg 76%
    10:00 +19°C° 0.1 mm 0 m/S 733 mmHg 73%
    11:00 +23°C° 0 mm 1 m/S 733 mmHg 67%
    12:00 +25°C° 0 mm 1 m/S 733 mmHg 60%
    13:00 +27°C° 0 mm 1 m/S 732 mmHg 54%
    14:00 +26°C° 0.1 mm 1 m/S 732 mmHg 56%
    15:00 +26°C° 0.1 mm 1 m/S 731 mmHg 57%
    16:00 +26°C° 0.1 mm 1 m/S 731 mmHg 59%
    17:00 +24°C° 0.3 mm 1 m/S 731 mmHg 68%
    18:00 +22°C° 0.3 mm 1 m/S 730 mmHg 76%
    19:00 +21°C° 0.3 mm 1 m/S 730 mmHg 85%
    20:00 +20°C° 0.3 mm 1 m/S 730 mmHg 88%
    21:00 +19°C° 0.3 mm 1 m/S 730 mmHg 90%
    22:00 +18°C° 0.3 mm 1 m/S 730 mmHg 93%
    23:00 +18°C° 1.3 mm 1 m/S 730 mmHg 94%

    28 Mai, Dienstag

    Zeit Temperatur Niederschläge Wind Luftdruck Luftfeuchtigkeit
    00:00 +16°C° 1.3 mm 0 m/S 729 mmHg 95%
    01:00 +16°C° 1.3 mm 0 m/S 729 mmHg 95%
    02:00 +15°C° 0.2 mm 0 m/S 729 mmHg 95%
    03:00 +15°C° 0.2 mm 0 m/S 728 mmHg 95%
    04:00 +15°C° 0.2 mm 1 m/S 728 mmHg 96%
    05:00 +16°C° 0.1 mm 1 m/S 728 mmHg 93%
    06:00 +18°C° 0.1 mm 1 m/S 728 mmHg 90%
    07:00 +19°C° 0.1 mm 1 m/S 728 mmHg 88%
    08:00 +20°C° 0.8 mm 1 m/S 728 mmHg 84%
    09:00 +21°C° 0.8 mm 1 m/S 728 mmHg 81%
    10:00 +22°C° 0.8 mm 1 m/S 728 mmHg 78%
    11:00 +21°C° 1.2 mm 2 m/S 727 mmHg 81%
    12:00 +20°C° 1.2 mm 3 m/S 727 mmHg 85%
    13:00 +19°C° 1.2 mm 3 m/S 727 mmHg 88%
    14:00 +19°C° 0.6 mm 4 m/S 727 mmHg 88%
    15:00 +18°C° 0.6 mm 4 m/S 728 mmHg 88%
    16:00 +18°C° 0.6 mm 4 m/S 728 mmHg 88%
    17:00 +15°C° 0.5 mm 4 m/S 728 mmHg 90%
    18:00 +14°C° 0.5 mm 4 m/S 728 mmHg 92%
    19:00 +13°C° 0.5 mm 4 m/S 729 mmHg 94%
    20:00 +13°C° 0.4 mm 4 m/S 729 mmHg 95%
    21:00 +12°C° 0.4 mm 4 m/S 730 mmHg 95%
    22:00 +12°C° 0.4 mm 4 m/S 730 mmHg 96%
    23:00 +12°C° 0.2 mm 3 m/S 730 mmHg 96%

    29 Mai, Mittwoch

    Zeit Temperatur Niederschläge Wind Luftdruck Luftfeuchtigkeit
    00:00 +11°C° 0.2 mm 3 m/S 730 mmHg 96%
    01:00 +12°C° 0.2 mm 2 m/S 730 mmHg 96%
    02:00 +12°C° 0.2 mm 2 m/S 731 mmHg 96%
    03:00 +12°C° 0.2 mm 2 m/S 731 mmHg 96%
    04:00 +12°C° 0.2 mm 1 m/S 731 mmHg 96%
    05:00 +13°C° 0.2 mm 1 m/S 731 mmHg 96%
    06:00 +13°C° 0.2 mm 1 m/S 732 mmHg 95%
    07:00 +13°C° 0.2 mm 1 m/S 732 mmHg 95%
    08:00 +13°C° 1.1 mm 1 m/S 732 mmHg 95%
    09:00 +13°C° 1.1 mm 1 m/S 733 mmHg 96%
    10:00 +13°C° 1.1 mm 1 m/S 733 mmHg 96%
    11:00 +13°C° 1.3 mm 2 m/S 734 mmHg 96%
    12:00 +12°C° 1.3 mm 2 m/S 734 mmHg 96%
    13:00 +12°C° 1.3 mm 2 m/S 734 mmHg 96%
    14:00 +12°C° 0.3 mm 2 m/S 735 mmHg 96%
    15:00 +10°C° 0.3 mm 2 m/S 735 mmHg 96%
    16:00 +10°C° 0.3 mm 3 m/S 735 mmHg 96%
    17:00 +10°C° 0.6 mm 3 m/S 736 mmHg 96%
    18:00 +10°C° 0.6 mm 2 m/S 737 mmHg 96%
    19:00 +9°C° 0.6 mm 2 m/S 737 mmHg 96%
    20:00 +9°C° 0.7 mm 2 m/S 738 mmHg 96%
    21:00 +9°C° 0.7 mm 2 m/S 738 mmHg 97%
    22:00 +9°C° 0.7 mm 2 m/S 739 mmHg 97%
    23:00 +9°C° 0.6 mm 2 m/S 739 mmHg 97%

    30 Mai, Donnerstag

    Zeit Temperatur Niederschläge Wind Luftdruck Luftfeuchtigkeit
    00:00 +9°C° 0.6 mm 2 m/S 739 mmHg 97%
    01:00 +10°C° 0.6 mm 1 m/S 739 mmHg 97%
    02:00 +10°C° 0.7 mm 1 m/S 739 mmHg 97%
    03:00 +10°C° 0.7 mm 1 m/S 740 mmHg 97%
    04:00 +10°C° 0.7 mm 1 m/S 740 mmHg 97%
    05:00 +10°C° 0.3 mm 1 m/S 740 mmHg 96%
    06:00 +10°C° 0.3 mm 1 m/S 740 mmHg 95%
    07:00 +10°C° 0.3 mm 1 m/S 740 mmHg 94%
    08:00 +12°C° 0 mm 1 m/S 740 mmHg 85%
    09:00 +14°C° 0 mm 1 m/S 740 mmHg 76%
    10:00 +16°C° 0 mm 1 m/S 740 mmHg 67%
    11:00 +18°C° 0 mm 1 m/S 739 mmHg 64%
    12:00 +19°C° 0 mm 1 m/S 739 mmHg 60%
    13:00 +19°C° 0 mm 1 m/S 739 mmHg 56%
    14:00 +19°C° 0 mm 1 m/S 738 mmHg 58%
    15:00 +19°C° 0 mm 1 m/S 738 mmHg 59%
    16:00 +19°C° 0 mm 1 m/S 738 mmHg 61%
    17:00 +18°C° 0 mm 1 m/S 737 mmHg 67%
    18:00 +16°C° 0 mm 1 m/S 737 mmHg 73%
    19:00 +13°C° 0 mm 0 m/S 737 mmHg 79%
    20:00 +13°C° 0 mm 1 m/S 737 mmHg 83%
    21:00 +12°C° 0 mm 1 m/S 737 mmHg 87%
    22:00 +10°C° 0 mm 1 m/S 737 mmHg 91%
    23:00 +10°C° 0 mm 1 m/S 737 mmHg 91%
    Mehr zeigen